Location: Newark
(39.6867°N, 100.6772°W)
Time: 06:52:34
(UTC+00:00)

ISS - Visible Passes

Search period start: 17 September 2019 00:00
Search period end: 27 September 2019 00:00
Orbit: 411 x 421 km, 51.6° (Epoch: 17 September)

Date Brightness Start Highest point End Pass type
(mag) Time Alt. Az. Time Alt. Az. Time Alt. Az.
18 Sep -2.2 02:20:38 10° SSW 02:22:13 23° S 02:22:13 23° S visible
19 Sep -2.3 01:32:52 10° S 01:35:24 21° SE 01:36:48 16° E visible
19 Sep -1.1 03:08:47 10° WSW 03:09:46 17° W 03:09:46 17° W visible
20 Sep -3.7 02:20:09 10° WSW 02:23:27 72° NW 02:24:03 54° NNE visible
21 Sep -3.8 01:31:44 10° SW 01:35:00 63° SE 01:38:07 11° ENE visible
21 Sep -1.0 03:09:23 10° WNW 03:11:02 18° NW 03:11:02 18° NW visible
22 Sep -2.0 02:20:24 10° W 02:23:21 29° NNW 02:24:53 20° NNE visible
23 Sep -2.7 01:31:34 10° WSW 01:34:46 45° NNW 01:37:59 10° NE visible
23 Sep -0.6 03:10:25 10° NW 03:11:28 13° NNW 03:11:28 13° NNW visible
24 Sep -1.2 02:21:11 10° WNW 02:23:24 17° NNW 02:25:01 13° NNE visible
25 Sep -1.5 01:32:02 10° WNW 01:34:42 22° NNW 01:37:22 10° NNE visible
26 Sep -1.0 02:22:15 10° NNW 02:23:35 12° N 02:24:44 10° NNE visible
